2022/08/25 23:31:23+0000,-35.95,-45.01,-35.54,-37.60,-47.83,-50.56
2022/08/25 23:32:15+0000,-35.41,-46.03,-35.18,-37.30,-46.25,-51.81
2022/08/25 23:33:07+0000,-36.13,-48.21,-35.92,-37.28,-45.09,-51.57
2022/08/25 23:33:59+0000,-36.08,-46.45,-35.37,-37.77,-44.88,-51.13
2022/08/25 23:34:51+0000,-36.23,-45.97,-35.69,-37.64,-44.32,-51.22
2022/08/25 23:35:43+0000,-35.42,-46.65,-35.53,-37.41,-44.59,-51.38
2022/08/25 23:36:35+0000,-35.58,-47.34,-35.20,-37.87,-46.05,-51.01
2022/08/25 23:37:27+0000,-35.74,-47.51,-35.26,-38.63,-46.06,-50.77
2022/08/25 23:38:19+0000,-35.50,-47.18,-35.66,-38.90,-46.06,-50.47
2022/08/25 23:39:11+0000,-36.27,-47.40,-35.69,-38.90,-49.53,-49.77
2022/08/25 23:40:04+0000,-35.81,-47.88,-35.34,-38.67,-49.48,-49.96
2022/08/25 23:41:04+0000,-36.17,-46.71,-35.92,-39.16,-49.04,-49.58
2022/08/25 23:41:56+0000,-36.56,-46.64,-35.07,-38.16,-49.44,-49.66
2022/08/25 23:42:48+0000,-36.16,-46.75,-35.80,-38.49,-49.27,-49.82
2022/08/25 23:43:40+0000,-35.99,-46.37,-35.58,-38.51,-48.94,-50.03
2022/08/25 23:44:32+0000,-36.02,-45.49,-35.34,-38.11,-46.73,-49.87
2022/08/25 23:45:24+0000,-36.44,-45.76,-35.21,-38.80,-45.42,-50.21
2022/08/25 23:46:16+0000,-35.71,-45.51,-34.99,-37.70,-45.44,-50.70
2022/08/25 23:47:08+0000,-35.68,-45.27,-35.91,-37.82,-46.63,-50.41
2022/08/25 23:48:00+0000,-35.98,-46.06,-35.65,-38.37,-46.34,-51.31
2022/08/25 23:48:52+0000,-36.32,-45.97,-35.88,-37.12,-45.69,-51.36
2022/08/25 23:49:44+0000,-35.49,-45.32,-35.33,-38.01,-46.63,-51.21
2022/08/25 23:50:36+0000,-35.36,-45.80,-35.30,-37.49,-46.64,-50.81
2022/08/25 23:51:36+0000,-35.57,-46.80,-35.23,-37.83,-45.00,-50.64
2022/08/25 23:52:28+0000,-35.73,-46.26,-35.39,-37.59,-46.06,-50.43
2022/08/25 23:53:20+0000,-36.75,-46.91,-35.92,-36.68,-45.09,-50.98
2022/08/25 23:54:12+0000,-35.81,-46.07,-35.98,-37.82,-44.63,-51.49
2022/08/25 23:55:04+0000,-36.21,-46.27,-35.74,-37.50,-46.82,-51.67
2022/08/25 23:55:56+0000,-36.00,-46.16,-35.81,-38.35,-52.18,-52.14
2022/08/25 23:56:48+0000,-35.96,-46.00,-35.72,-37.38,-44.61,-49.57
2022/08/25 23:57:40+0000,-36.60,-45.05,-35.96,-37.84,-46.09,-49.23
2022/08/25 23:58:32+0000,-36.13,-45.54,-35.76,-38.31,-46.09,-47.92
2022/08/25 23:59:24+0000,-36.70,-45.58,-35.92,-37.98,-45.16,-48.63
2022/08/26 00:00:16+0000,-35.59,-44.98,-35.81,-38.85,-45.34,-48.68
2022/08/26 00:01:23+0000,-36.37,-45.82,-35.89,-38.30,-44.06,-54.06
2022/08/26 00:02:15+0000,-36.75,-46.75,-35.15,-37.83,-46.80,-53.55
2022/08/26 00:03:07+0000,-36.73,-45.47,-35.67,-37.83,-46.29,-54.04
2022/08/26 00:03:59+0000,-35.02,-46.08,-35.05,-38.61,-47.23,-53.84
2022/08/26 00:04:51+0000,-36.39,-46.92,-35.30,-38.37,-46.93,-53.32
2022/08/26 00:05:43+0000,-36.61,-46.92,-35.46,-38.38,-46.68,-53.57
2022/08/26 00:06:35+0000,-36.73,-47.21,-35.11,-37.73,-46.41,-53.63
2022/08/26 00:07:27+0000,-36.01,-46.35,-35.44,-37.85,-47.06,-53.09
2022/08/26 00:08:19+0000,-36.45,-44.93,-35.15,-37.65,-46.40,-53.83
2022/08/26 00:09:11+0000,-36.39,-45.96,-35.59,-39.19,-46.98,-52.70
2022/08/26 00:10:03+0000,-35.79,-45.81,-35.31,-37.73,-46.62,-53.45
2022/08/26 00:11:02+0000,-36.78,-44.72,-35.67,-38.24,-47.13,-53.39
2022/08/26 00:11:54+0000,-35.75,-44.64,-35.30,-38.40,-46.65,-53.80
2022/08/26 00:12:46+0000,-35.52,-45.45,-35.63,-37.94,-48.87,-51.79
2022/08/26 00:13:38+0000,-36.43,-44.88,-35.16,-36.82,-48.28,-50.83
2022/08/26 00:14:30+0000,-36.29,-44.98,-35.74,-37.98,-53.08,-55.13
2022/08/26 00:15:22+0000,-36.04,-45.13,-35.22,-37.72,-51.55,-54.49
2022/08/26 00:16:14+0000,-36.78,-45.04,-35.31,-38.40,-51.46,-55.02
2022/08/26 00:17:06+0000,-37.16,-45.10,-35.04,-37.45,-50.35,-52.72
2022/08/26 00:17:58+0000,-36.61,-44.39,-35.43,-37.35,-45.70,-47.51
2022/08/26 00:18:50+0000,-36.32,-44.25,-34.78,-37.53,-43.17,-52.26
2022/08/26 00:19:42+0000,-35.76,-44.22,-35.60,-37.04,-45.36,-52.11
2022/08/26 00:20:34+0000,-36.18,-44.54,-35.28,-37.48,-47.09,-52.09
2022/08/26 00:21:34+0000,-36.46,-44.88,-35.88,-37.96,-46.63,-51.68
2022/08/26 00:22:26+0000,-36.64,-44.49,-35.35,-37.62,-46.56,-51.78
2022/08/26 00:23:18+0000,-33.61,-45.63,-35.80,-37.95,-46.81,-51.92
2022/08/26 00:24:10+0000,-36.12,-45.98,-34.81,-37.02,-49.67,-51.12
2022/08/26 00:25:02+0000,-36.21,-47.07,-34.98,-35.70,-46.74,-52.82
2022/08/26 00:25:54+0000,-36.51,-46.60,-35.66,-36.56,-48.37,-51.43
2022/08/26 00:26:46+0000,-36.44,-45.80,-35.05,-37.74,-47.13,-52.86
2022/08/26 00:27:38+0000,-36.29,-45.68,-35.62,-37.58,-46.58,-52.89
2022/08/26 00:28:30+0000,-35.86,-45.39,-35.29,-37.48,-48.21,-52.18
2022/08/26 00:29:22+0000,-36.46,-45.74,-35.10,-37.70,-46.51,-52.65
2022/08/26 00:30:14+0000,-35.96,-45.91,-35.14,-37.70,-46.36,-53.66
2022/08/26 00:31:13+0000,-35.60,-47.95,-35.65,-37.74,-46.15,-53.07
2022/08/26 00:32:05+0000,-36.99,-47.44,-35.06,-38.31,-48.14,-53.03
2022/08/26 00:32:57+0000,-35.72,-47.82,-35.19,-37.36,-46.34,-53.08
2022/08/26 00:33:49+0000,-35.88,-45.94,-35.43,-37.64,-46.00,-54.11
2022/08/26 00:34:41+0000,-36.27,-46.34,-35.45,-38.45,-45.80,-53.58
2022/08/26 00:35:33+0000,-35.77,-46.80,-35.30,-38.08,-45.81,-53.90
2022/08/26 00:36:25+0000,-36.12,-46.86,-35.16,-37.25,-46.43,-53.65
2022/08/26 00:37:17+0000,-36.08,-47.03,-35.16,-38.78,-46.86,-54.02
2022/08/26 00:38:09+0000,-36.94,-45.84,-35.31,-38.87,-46.81,-52.75
2022/08/26 00:39:01+0000,-36.50,-46.85,-35.53,-38.63,-48.30,-52.14
2022/08/26 00:39:53+0000,-36.81,-47.00,-34.88,-38.37,-46.39,-53.13
2022/08/26 00:40:45+0000,-36.62,-46.22,-35.21,-37.69,-46.66,-53.35
2022/08/26 00:41:43+0000,-36.34,-45.55,-35.42,-38.27,-48.58,-52.49
2022/08/26 00:42:35+0000,-35.80,-45.33,-35.67,-38.55,-48.04,-54.24
2022/08/26 00:43:27+0000,-36.15,-46.84,-35.02,-38.08,-49.16,-52.44
2022/08/26 00:44:19+0000,-36.69,-44.62,-35.10,-38.58,-48.80,-52.03
2022/08/26 00:45:11+0000,-36.32,-46.18,-35.34,-38.04,-48.63,-52.47
2022/08/26 00:46:03+0000,-36.13,-45.81,-35.68,-38.22,-49.74,-52.65
2022/08/26 00:46:55+0000,-36.85,-46.05,-35.36,-38.32,-48.57,-53.41
2022/08/26 00:47:47+0000,-36.55,-45.13,-35.74,-38.19,-48.31,-52.31
2022/08/26 00:48:39+0000,-36.80,-46.95,-35.32,-38.47,-48.36,-52.40
2022/08/26 00:49:31+0000,-36.80,-46.46,-35.85,-38.39,-48.63,-52.90
2022/08/26 00:50:24+0000,-36.07,-46.16,-36.05,-37.76,-48.48,-53.10
2022/08/26 00:51:22+0000,-36.61,-45.92,-35.41,-38.11,-49.13,-53.99
2022/08/26 00:52:14+0000,-35.98,-44.87,-35.18,-39.18,-49.22,-52.98
2022/08/26 00:53:06+0000,-35.89,-46.14,-35.41,-39.25,-49.14,-52.97
2022/08/26 00:53:58+0000,-36.26,-45.40,-35.30,-38.60,-48.36,-53.53
2022/08/26 00:54:50+0000,-36.78,-45.88,-35.21,-38.38,-49.71,-53.00
2022/08/26 00:55:42+0000,-36.80,-46.09,-35.90,-37.60,-50.53,-53.40
2022/08/26 00:56:34+0000,-36.02,-47.75,-35.31,-37.85,-50.03,-52.72
2022/08/26 00:57:26+0000,-35.80,-47.74,-34.94,-37.72,-50.58,-52.92
2022/08/26 00:58:18+0000,-35.76,-45.90,-35.17,-38.49,-50.10,-53.14
2022/08/26 00:59:10+0000,-36.48,-46.01,-35.55,-37.24,-49.22,-52.33
2022/08/26 01:00:02+0000,-36.62,-44.15,-35.36,-38.22,-48.96,-52.30
2022/08/26 01:01:02+0000,-36.92,-45.97,-35.45,-37.21,-49.48,-53.08
2022/08/26 01:01:54+0000,-36.13,-45.19,-35.93,-37.74,-50.17,-52.36
2022/08/26 01:02:46+0000,-36.04,-46.72,-35.09,-38.42,-49.46,-53.04
2022/08/26 01:03:38+0000,-35.75,-46.97,-35.90,-38.39,-50.06,-53.18
2022/08/26 01:04:30+0000,-36.56,-45.85,-35.07,-38.00,-49.70,-53.58
2022/08/26 01:05:22+0000,-35.80,-45.32,-35.39,-37.07,-50.85,-52.51
2022/08/26 01:06:14+0000,-36.40,-44.40,-35.45,-37.62,-49.82,-53.31
2022/08/26 01:07:06+0000,-37.15,-46.31,-35.40,-38.38,-49.59,-53.07
2022/08/26 01:07:58+0000,-36.06,-46.22,-35.29,-38.16,-50.10,-53.06
2022/08/26 01:08:50+0000,-36.07,-46.86,-35.07,-37.95,-50.04,-53.31
2022/08/26 01:09:42+0000,-35.70,-46.13,-35.06,-37.23,-50.18,-53.73
2022/08/26 01:10:34+0000,-36.37,-46.02,-35.00,-38.22,-50.35,-52.96
2022/08/26 01:11:39+0000,-36.32,-47.01,-35.05,-38.38,-49.96,-53.45
2022/08/26 01:12:31+0000,-36.43,-46.74,-35.31,-38.31,-49.53,-52.53
2022/08/26 01:13:23+0000,-35.74,-46.26,-35.54,-37.61,-49.36,-53.29
2022/08/26 01:14:15+0000,-36.31,-46.27,-35.70,-38.64,-49.83,-53.30
2022/08/26 01:15:07+0000,-36.30,-46.44,-35.37,-38.69,-50.12,-52.37
2022/08/26 01:15:59+0000,-36.15,-46.94,-35.25,-38.11,-49.81,-52.95
2022/08/26 01:16:51+0000,-36.63,-47.22,-34.93,-37.56,-50.41,-53.51
2022/08/26 01:17:43+0000,-35.34,-46.63,-35.50,-38.32,-49.67,-53.17
2022/08/26 01:18:35+0000,-36.19,-45.48,-35.29,-38.07,-49.72,-53.53
2022/08/26 01:19:27+0000,-36.45,-45.96,-35.57,-38.13,-49.70,-53.38
2022/08/26 01:20:20+0000,-36.96,-45.92,-35.20,-37.93,-49.33,-53.45
2022/08/26 01:21:19+0000,-36.55,-45.35,-35.66,-38.23,-49.65,-53.30
2022/08/26 01:22:11+0000,-36.12,-46.82,-34.55,-38.02,-49.69,-53.47
2022/08/26 01:23:03+0000,-34.87,-46.27,-35.17,-38.21,-49.76,-53.81
2022/08/26 01:23:55+0000,-34.62,-45.16,-35.32,-36.61,-50.11,-54.27
2022/08/26 01:24:47+0000,-35.86,-46.06,-35.25,-38.52,-50.03,-53.92
2022/08/26 01:25:39+0000,-36.14,-46.20,-35.37,-37.69,-50.43,-53.24
2022/08/26 01:26:31+0000,-36.18,-46.28,-34.81,-36.99,-49.60,-53.84
2022/08/26 01:27:23+0000,-35.41,-46.42,-35.01,-37.80,-49.70,-53.52
2022/08/26 01:28:15+0000,-34.82,-46.86,-34.82,-37.97,-50.30,-53.43
2022/08/26 01:29:07+0000,-36.23,-45.50,-35.66,-38.05,-49.64,-53.76
2022/08/26 01:29:59+0000,-35.36,-45.40,-35.37,-37.41,-49.31,-53.71
2022/08/26 01:30:51+0000,-35.93,-44.62,-34.72,-37.30,-49.65,-53.50
2022/08/26 01:31:51+0000,-35.91,-47.44,-35.59,-38.24,-50.32,-54.08
2022/08/26 01:32:43+0000,-36.25,-47.15,-35.31,-38.96,-49.10,-53.85
2022/08/26 01:33:35+0000,-35.55,-46.68,-35.24,-37.90,-51.73,-53.69
2022/08/26 01:34:27+0000,-36.25,-44.33,-35.01,-37.88,-51.87,-54.30
2022/08/26 01:35:19+0000,-35.90,-46.85,-35.28,-38.04,-51.32,-54.15
2022/08/26 01:36:11+0000,-35.80,-46.04,-35.76,-37.23,-50.74,-53.54
2022/08/26 01:37:03+0000,-35.18,-44.54,-34.90,-37.67,-50.81,-53.39
2022/08/26 01:37:55+0000,-35.79,-47.06,-35.67,-36.82,-51.33,-52.92
2022/08/26 01:38:47+0000,-36.11,-46.93,-35.52,-37.48,-50.45,-53.61
2022/08/26 01:39:39+0000,-35.79,-45.46,-35.62,-37.43,-51.89,-53.69
2022/08/26 01:40:31+0000,-36.11,-45.57,-35.04,-38.35,-50.79,-53.13
2022/08/26 01:41:36+0000,-36.22,-46.90,-34.80,-37.87,-51.16,-52.96
2022/08/26 01:42:28+0000,-35.26,-46.20,-35.25,-36.70,-51.05,-53.17
2022/08/26 01:43:20+0000,-36.38,-46.36,-35.10,-37.59,-51.54,-53.78
2022/08/26 01:44:12+0000,-35.61,-43.72,-35.16,-37.12,-51.54,-52.99
2022/08/26 01:45:05+0000,-34.79,-46.27,-34.78,-37.83,-51.84,-53.57
2022/08/26 01:45:57+0000,-36.42,-43.79,-36.15,-36.85,-51.75,-53.42
2022/08/26 01:46:49+0000,-36.82,-46.86,-35.18,-38.08,-51.72,-53.40
2022/08/26 01:47:41+0000,-35.82,-45.52,-35.71,-37.72,-51.59,-53.52
2022/08/26 01:48:33+0000,-36.24,-45.78,-35.01,-37.10,-51.91,-53.27
2022/08/26 01:49:25+0000,-35.75,-45.55,-35.74,-36.79,-50.37,-53.84
2022/08/26 01:50:17+0000,-35.73,-45.65,-34.51,-37.32,-51.58,-53.70
2022/08/26 01:51:20+0000,-36.21,-47.06,-34.83,-37.56,-50.96,-53.36
2022/08/26 01:52:12+0000,-35.44,-46.22,-35.71,-38.02,-51.41,-53.31
2022/08/26 01:53:04+0000,-35.94,-46.55,-35.32,-37.67,-51.48,-52.84
2022/08/26 01:53:56+0000,-36.12,-46.97,-34.84,-36.77,-51.78,-53.23
2022/08/26 01:54:48+0000,-35.90,-45.85,-34.76,-38.32,-51.10,-51.86
2022/08/26 01:55:40+0000,-34.18,-44.64,-35.32,-39.18,-52.01,-53.98
2022/08/26 01:56:32+0000,-35.90,-46.49,-35.96,-38.03,-52.80,-53.19
2022/08/26 01:57:24+0000,-36.18,-45.34,-34.97,-37.39,-52.92,-53.67
2022/08/26 01:58:16+0000,-36.27,-45.09,-35.79,-37.97,-53.41,-53.46
2022/08/26 01:59:08+0000,-35.73,-46.00,-34.96,-38.28,-51.61,-53.87
2022/08/26 02:00:01+0000,-35.57,-46.21,-35.01,-37.97,-53.32,-53.62
2022/08/26 02:01:01+0000,-36.43,-45.79,-34.86,-37.31,-52.94,-53.24
2022/08/26 02:01:53+0000,-36.61,-44.58,-35.00,-37.04,-52.20,-53.47
2022/08/26 02:02:45+0000,-35.81,-44.66,-35.04,-38.62,-52.73,-53.40
2022/08/26 02:03:37+0000,-36.31,-45.09,-34.96,-38.97,-52.43,-53.61
2022/08/26 02:04:29+0000,-35.68,-45.67,-34.85,-37.70,-52.61,-53.24
2022/08/26 02:05:21+0000,-36.14,-44.84,-35.00,-37.84,-52.70,-52.95
2022/08/26 02:06:13+0000,-36.58,-44.64,-35.22,-37.64,-52.54,-53.28
2022/08/26 02:07:05+0000,-35.83,-46.06,-34.86,-39.22,-52.71,-52.83
2022/08/26 02:07:57+0000,-35.64,-44.57,-36.81,-38.37,-52.84,-53.59
2022/08/26 02:08:49+0000,-37.36,-45.54,-35.86,-38.87,-52.72,-53.33
2022/08/26 02:09:41+0000,-35.39,-45.21,-35.85,-38.77,-52.46,-53.28
2022/08/26 02:10:33+0000,-35.96,-44.78,-35.57,-38.65,-52.95,-53.43
2022/08/26 02:11:32+0000,-36.65,-46.11,-34.95,-38.25,-52.67,-52.87
2022/08/26 02:12:24+0000,-36.59,-46.27,-36.26,-37.91,-53.11,-53.30
2022/08/26 02:13:16+0000,-36.49,-45.00,-35.29,-38.49,-52.94,-53.49
2022/08/26 02:14:08+0000,-36.84,-45.09,-35.00,-38.02,-52.76,-52.79
2022/08/26 02:15:00+0000,-36.11,-44.98,-34.72,-38.71,-52.61,-53.16
2022/08/26 02:15:52+0000,-36.84,-46.50,-35.35,-38.11,-51.51,-52.82
2022/08/26 02:16:44+0000,-36.47,-45.28,-35.97,-38.24,-51.30,-53.10
2022/08/26 02:17:36+0000,-35.53,-46.20,-35.42,-37.93,-50.53,-53.39
2022/08/26 02:18:28+0000,-36.38,-45.54,-36.70,-38.08,-52.41,-53.15
2022/08/26 02:19:20+0000,-35.80,-46.56,-35.81,-37.95,-52.80,-53.45
2022/08/26 02:20:12+0000,-33.98,-45.81,-36.55,-38.30,-52.11,-53.57
2022/08/26 02:21:12+0000,-32.79,-45.63,-35.44,-38.07,-52.42,-53.66
2022/08/26 02:22:04+0000,-34.78,-46.25,-35.48,-38.36,-51.20,-53.11
2022/08/26 02:22:56+0000,-36.79,-46.22,-35.53,-37.41,-50.82,-53.28
2022/08/26 02:23:48+0000,-36.95,-44.26,-35.56,-37.88,-51.03,-53.43
2022/08/26 02:24:40+0000,-36.70,-44.84,-35.75,-38.22,-52.33,-53.81
2022/08/26 02:25:32+0000,-35.27,-46.06,-35.04,-37.58,-52.06,-53.46
2022/08/26 02:26:24+0000,-36.47,-45.78,-35.42,-37.75,-52.77,-52.84
2022/08/26 02:27:16+0000,-35.85,-45.12,-34.95,-38.50,-51.97,-53.12
2022/08/26 02:28:08+0000,-36.21,-45.10,-35.50,-39.56,-52.34,-53.31
2022/08/26 02:29:00+0000,-36.34,-44.74,-35.72,-38.80,-52.77,-53.28
2022/08/26 02:29:52+0000,-35.22,-47.41,-35.61,-36.97,-52.87,-53.21
2022/08/26 02:30:44+0000,-36.16,-45.81,-35.28,-39.02,-52.26,-53.44
2022/08/26 02:31:44+0000,-34.07,-44.55,-35.21,-38.51,-52.15,-53.46
2022/08/26 02:32:36+0000,-33.45,-44.98,-35.74,-38.31,-51.14,-53.10
2022/08/26 02:33:28+0000,-36.40,-44.62,-35.83,-37.95,-51.90,-52.92
2022/08/26 02:34:20+0000,-36.32,-43.84,-35.11,-39.52,-53.25,-55.76
2022/08/26 02:35:12+0000,-33.21,-43.88,-35.66,-38.64,-53.34,-54.49
2022/08/26 02:36:04+0000,-36.32,-44.86,-35.13,-38.90,-52.78,-54.99
2022/08/26 02:36:56+0000,-36.53,-41.09,-35.48,-39.16,-52.31,-54.33
2022/08/26 02:37:48+0000,-37.11,-44.57,-35.76,-39.69,-51.13,-54.54
2022/08/26 02:38:40+0000,-35.84,-43.17,-36.20,-38.70,-52.95,-54.89
2022/08/26 02:39:32+0000,-34.73,-44.25,-35.36,-37.50,-53.64,-54.98
2022/08/26 02:40:24+0000,-35.68,-43.58,-35.26,-37.93,-52.99,-55.27
2022/08/26 02:41:29+0000,-36.26,-44.10,-36.32,-38.15,-53.01,-55.05
2022/08/26 02:42:21+0000,-36.41,-43.83,-35.21,-38.57,-53.07,-55.30
2022/08/26 02:43:13+0000,-34.67,-42.19,-35.50,-38.76,-53.12,-54.86
2022/08/26 02:44:05+0000,-36.73,-44.01,-35.05,-39.02,-52.75,-55.14
2022/08/26 02:44:57+0000,-36.22,-44.94,-35.30,-39.02,-52.98,-55.43
2022/08/26 02:45:49+0000,-37.07,-39.19,-35.33,-39.06,-53.15,-56.36
2022/08/26 02:46:41+0000,-34.81,-41.30,-35.56,-39.43,-52.40,-54.92
2022/08/26 02:47:33+0000,-36.19,-43.97,-35.56,-38.02,-52.73,-55.82
2022/08/26 02:48:25+0000,-36.53,-44.19,-35.14,-38.86,-51.66,-55.13
2022/08/26 02:49:17+0000,-36.14,-40.53,-35.39,-38.54,-52.70,-55.35
2022/08/26 02:50:09+0000,-36.20,-43.11,-36.15,-40.27,-51.68,-54.69
2022/08/26 02:51:08+0000,-37.32,-43.68,-35.67,-38.83,-51.26,-55.09
2022/08/26 02:52:00+0000,-36.36,-43.59,-36.10,-37.98,-51.74,-54.86
2022/08/26 02:52:53+0000,-36.47,-44.56,-35.32,-38.48,-51.60,-55.26
2022/08/26 02:53:45+0000,-35.21,-41.87,-36.01,-39.46,-50.67,-55.21
2022/08/26 02:54:37+0000,-33.97,-43.49,-36.68,-38.46,-50.40,-55.60
2022/08/26 02:55:29+0000,-36.34,-42.77,-36.47,-38.49,-50.23,-54.90
2022/08/26 02:56:21+0000,-36.92,-41.15,-35.80,-39.63,-51.91,-55.30
2022/08/26 02:57:13+0000,-36.34,-42.16,-35.57,-39.55,-51.69,-55.54
2022/08/26 02:58:05+0000,-35.66,-42.11,-35.32,-40.46,-51.98,-55.36
2022/08/26 02:58:57+0000,-36.43,-42.10,-35.34,-38.33,-52.08,-55.21
2022/08/26 02:59:49+0000,-36.58,-40.84,-35.28,-38.65,-51.79,-55.08
2022/08/26 03:00:41+0000,-36.49,-40.72,-36.38,-38.28,-52.08,-55.07
2022/08/26 03:01:41+0000,-36.30,-40.73,-35.65,-38.87,-51.72,-54.85
2022/08/26 03:02:33+0000,-36.84,-44.02,-35.71,-39.47,-51.75,-54.74
2022/08/26 03:03:25+0000,-36.20,-43.09,-35.39,-39.38,-51.88,-55.63
2022/08/26 03:04:17+0000,-35.57,-40.89,-35.65,-39.54,-51.31,-54.57
2022/08/26 03:05:09+0000,-35.89,-40.10,-36.13,-38.17,-51.27,-46.08
2022/08/26 03:06:01+0000,-33.88,-43.98,-37.32,-38.52,-50.58,-55.47
2022/08/26 03:06:53+0000,-36.03,-42.76,-36.41,-38.63,-50.77,-55.73
2022/08/26 03:07:45+0000,-36.53,-40.20,-36.27,-37.55,-50.94,-55.03
2022/08/26 03:08:37+0000,-36.28,-39.94,-36.77,-37.74,-50.74,-55.64
2022/08/26 03:09:29+0000,-35.75,-44.30,-36.74,-38.05,-50.41,-55.15
2022/08/26 03:10:21+0000,-36.75,-44.14,-36.18,-38.33,-51.80,-55.13
2022/08/26 03:11:21+0000,-35.88,-42.54,-36.93,-39.32,-51.84,-54.72
2022/08/26 03:12:13+0000,-36.01,-39.65,-36.36,-38.52,-51.54,-55.53
2022/08/26 03:13:05+0000,-36.86,-41.68,-36.29,-39.18,-51.56,-55.10
2022/08/26 03:13:57+0000,-36.46,-41.49,-36.61,-38.58,-51.30,-54.90
2022/08/26 03:14:49+0000,-36.25,-37.78,-36.45,-40.45,-51.41,-54.65
2022/08/26 03:15:41+0000,-35.64,-39.71,-36.08,-38.79,-51.55,-55.37
2022/08/26 03:16:33+0000,-36.13,-41.29,-36.27,-39.03,-51.48,-55.00
2022/08/26 03:17:25+0000,-36.65,-41.21,-35.47,-38.98,-51.18,-54.48
2022/08/26 03:18:17+0000,-36.04,-40.56,-35.92,-38.75,-53.02,-55.15
2022/08/26 03:19:09+0000,-35.54,-41.04,-37.00,-38.98,-52.62,-54.57
2022/08/26 03:20:01+0000,-36.93,-40.75,-36.80,-37.68,-53.71,-54.61
2022/08/26 03:21:00+0000,-36.00,-41.71,-36.63,-38.75,-53.92,-55.29
2022/08/26 03:21:52+0000,-36.74,-41.92,-35.32,-38.84,-52.82,-55.09
2022/08/26 03:22:44+0000,-36.14,-39.60,-35.94,-38.16,-52.17,-55.56
2022/08/26 03:23:36+0000,-35.94,-41.85,-37.16,-38.38,-51.49,-55.10
2022/08/26 03:24:28+0000,-36.20,-41.34,-37.67,-39.43,-51.55,-55.09
2022/08/26 03:25:20+0000,-37.09,-42.12,-37.28,-38.64,-51.11,-54.79
2022/08/26 03:26:12+0000,-35.19,-40.90,-37.90,-39.00,-51.27,-55.25
2022/08/26 03:27:04+0000,-34.82,-41.54,-35.87,-38.78,-51.52,-55.16
2022/08/26 03:27:56+0000,-36.35,-42.33,-37.31,-38.13,-51.03,-55.16
2022/08/26 03:28:48+0000,-37.12,-40.79,-37.41,-38.49,-51.13,-54.97
2022/08/26 03:29:40+0000,-34.09,-40.37,-37.35,-38.56,-50.97,-54.61
2022/08/26 03:30:33+0000,-36.58,-41.87,-36.66,-38.13,-51.47,-55.05
2022/08/26 03:31:32+0000,-37.04,-42.02,-36.76,-38.35,-51.17,-54.90
2022/08/26 03:32:24+0000,-36.31,-41.75,-37.64,-38.32,-51.93,-54.98
2022/08/26 03:33:16+0000,-36.29,-40.75,-36.25,-38.36,-51.12,-54.76
2022/08/26 03:34:08+0000,-37.14,-40.05,-37.24,-38.39,-50.65,-55.09
2022/08/26 03:35:00+0000,-35.65,-42.37,-37.48,-38.72,-51.23,-54.55
2022/08/26 03:35:52+0000,-35.98,-42.90,-36.93,-38.75,-51.30,-55.41
2022/08/26 03:36:44+0000,-36.51,-39.97,-36.75,-38.32,-51.91,-54.93
2022/08/26 03:37:36+0000,-35.98,-44.20,-37.25,-38.89,-51.50,-55.12
2022/08/26 03:38:28+0000,-36.48,-42.59,-37.72,-38.58,-51.13,-55.10
2022/08/26 03:39:20+0000,-36.22,-39.71,-37.17,-38.54,-51.36,-54.62
2022/08/26 03:40:12+0000,-36.00,-41.48,-37.34,-37.52,-51.81,-54.87
2022/08/26 03:41:11+0000,-36.43,-40.00,-37.69,-38.83,-51.25,-55.00
2022/08/26 03:42:03+0000,-36.01,-41.52,-37.49,-38.45,-51.19,-55.11
2022/08/26 03:42:55+0000,-36.18,-42.08,-37.15,-38.35,-51.82,-55.29
2022/08/26 03:43:47+0000,-37.01,-40.91,-37.32,-38.26,-50.99,-54.39
2022/08/26 03:44:39+0000,-36.96,-40.25,-37.21,-38.74,-51.19,-54.21
2022/08/26 03:45:31+0000,-37.30,-42.27,-36.89,-38.93,-50.97,-55.18
2022/08/26 03:46:23+0000,-35.70,-42.63,-36.51,-38.04,-52.10,-55.03
2022/08/26 03:47:15+0000,-37.90,-38.72,-36.95,-38.43,-52.10,-55.59
2022/08/26 03:48:08+0000,-37.91,-42.74,-36.99,-38.32,-51.93,-55.06
2022/08/26 03:49:00+0000,-36.49,-43.21,-36.51,-38.58,-51.85,-55.25
2022/08/26 03:49:52+0000,-36.60,-43.47,-37.17,-38.37,-52.61,-55.07
2022/08/26 03:50:44+0000,-36.76,-40.56,-37.11,-38.67,-52.19,-55.10
2022/08/26 03:51:43+0000,-36.47,-41.65,-37.52,-39.22,-51.82,-55.05
2022/08/26 03:52:35+0000,-36.62,-42.26,-37.41,-39.36,-52.22,-55.27
2022/08/26 03:53:27+0000,-35.97,-42.58,-37.40,-39.44,-50.91,-55.31
2022/08/26 03:54:19+0000,-36.69,-41.53,-36.64,-39.63,-52.97,-55.27
2022/08/26 03:55:11+0000,-36.11,-40.83,-36.90,-39.95,-52.92,-55.26
2022/08/26 03:56:03+0000,-36.81,-41.82,-36.72,-39.54,-52.88,-54.80
2022/08/26 03:56:55+0000,-36.70,-41.18,-36.68,-38.61,-52.95,-54.83
2022/08/26 03:57:47+0000,-35.97,-41.22,-37.05,-38.70,-52.67,-54.76
2022/08/26 03:58:39+0000,-36.88,-41.66,-36.95,-39.46,-52.91,-54.94
2022/08/26 03:59:31+0000,-37.43,-41.70,-36.43,-39.11,-52.89,-55.21
2022/08/26 04:00:23+0000,-36.63,-43.52,-37.16,-39.29,-52.61,-55.04
2022/08/26 04:01:23+0000,-35.79,-42.27,-36.88,-39.25,-54.92,-55.88
2022/08/26 04:02:15+0000,-38.46,-41.99,-36.97,-47.81,-53.96,-55.28
2022/08/26 04:03:07+0000,-37.97,-41.26,-37.63,-47.34,-53.96,-56.23
2022/08/26 04:03:59+0000,-38.34,-42.40,-37.11,-47.90,-54.46,-55.42
2022/08/26 04:04:51+0000,-37.96,-43.08,-36.63,-48.47,-54.45,-55.24
2022/08/26 04:05:44+0000,-37.64,-41.88,-37.69,-47.51,-54.74,-55.32
2022/08/26 04:06:36+0000,-37.34,-44.21,-37.18,-47.20,-54.59,-55.07
2022/08/26 04:07:28+0000,-37.13,-42.70,-37.05,-47.90,-54.35,-55.21
2022/08/26 04:08:20+0000,-38.04,-43.37,-37.08,-48.98,-54.29,-54.68
2022/08/26 04:09:12+0000,-38.59,-42.45,-37.35,-48.28,-54.54,-54.87
2022/08/26 04:10:04+0000,-37.24,-43.89,-36.26,-49.13,-54.81,-55.77
2022/08/26 04:11:03+0000,-37.36,-41.69,-36.82,-47.90,-54.52,-55.72
2022/08/26 04:11:55+0000,-37.78,-42.99,-36.09,-47.81,-54.93,-56.19
2022/08/26 04:12:47+0000,-38.29,-42.51,-36.93,-48.03,-55.02,-56.25
2022/08/26 04:13:39+0000,-38.03,-41.85,-36.90,-46.60,-54.56,-55.54
2022/08/26 04:14:31+0000,-37.92,-42.37,-37.23,-48.05,-55.13,-55.44
2022/08/26 04:15:23+0000,-37.56,-42.70,-36.88,-47.41,-54.94,-55.23
2022/08/26 04:16:15+0000,-38.54,-42.20,-37.24,-47.82,-54.86,-54.83
2022/08/26 04:17:07+0000,-37.78,-44.00,-37.18,-48.00,-54.89,-55.11
2022/08/26 04:17:59+0000,-38.85,-43.39,-37.35,-48.20,-54.82,-55.16
2022/08/26 04:18:51+0000,-38.17,-44.39,-37.45,-47.67,-54.96,-55.28
2022/08/26 04:19:43+0000,-37.70,-40.68,-38.11,-47.94,-54.74,-55.44
2022/08/26 04:20:35+0000,-37.25,-43.74,-37.19,-47.33,-54.88,-55.10
2022/08/26 04:21:38+0000,-37.44,-41.89,-36.98,-47.88,-54.68,-55.31
2022/08/26 04:22:30+0000,-38.08,-44.51,-36.37,-47.73,-54.51,-55.53
2022/08/26 04:23:22+0000,-38.06,-44.05,-36.90,-47.05,-54.78,-55.21
2022/08/26 04:24:14+0000,-37.43,-42.59,-37.41,-47.33,-55.26,-55.53
2022/08/26 04:25:06+0000,-38.12,-44.04,-37.72,-47.27,-54.74,-55.25
2022/08/26 04:25:58+0000,-37.85,-42.94,-37.75,-47.17,-54.67,-54.88
2022/08/26 04:26:51+0000,-38.60,-44.08,-37.61,-48.93,-54.78,-55.22
2022/08/26 04:27:43+0000,-37.73,-41.93,-37.90,-47.07,-55.26,-55.70
2022/08/26 04:28:35+0000,-36.95,-42.69,-37.78,-48.53,-54.97,-55.11
2022/08/26 04:29:27+0000,-37.28,-43.59,-38.00,-48.31,-55.16,-54.98
2022/08/26 04:30:19+0000,-38.13,-42.93,-37.38,-47.41,-54.41,-55.15
2022/08/26 04:31:23+0000,-37.26,-43.99,-37.26,-47.62,-54.96,-55.06
2022/08/26 04:32:15+0000,-38.02,-42.75,-37.81,-46.96,-55.07,-55.44
2022/08/26 04:33:07+0000,-37.47,-43.82,-37.78,-46.88,-55.00,-54.63
2022/08/26 04:33:59+0000,-37.65,-42.59,-38.42,-47.60,-55.22,-55.40
2022/08/26 04:34:51+0000,-37.63,-42.58,-37.21,-46.60,-55.12,-54.95
2022/08/26 04:35:43+0000,-35.97,-41.56,-38.01,-47.20,-55.77,-55.37
2022/08/26 04:36:35+0000,-37.52,-42.44,-37.05,-47.42,-56.41,-55.48
2022/08/26 04:37:27+0000,-37.09,-42.28,-37.66,-47.28,-55.83,-55.01
2022/08/26 04:38:19+0000,-37.14,-42.49,-37.56,-47.60,-55.85,-55.08
2022/08/26 04:39:11+0000,-37.42,-41.13,-37.94,-46.84,-55.81,-55.40
2022/08/26 04:40:03+0000,-38.05,-43.16,-37.32,-47.81,-54.64,-55.41
2022/08/26 04:41:06+0000,-37.85,-45.53,-36.99,-47.37,-54.96,-56.18
2022/08/26 04:41:58+0000,-38.10,-43.20,-37.49,-47.27,-54.73,-55.60
2022/08/26 04:42:50+0000,-38.34,-43.19,-37.64,-47.08,-55.32,-55.75
2022/08/26 04:43:42+0000,-37.63,-43.98,-37.64,-46.33,-55.56,-56.29
2022/08/26 04:44:35+0000,-36.28,-44.62,-37.31,-47.61,-55.62,-55.43
2022/08/26 04:45:27+0000,-37.75,-43.50,-37.54,-47.65,-55.96,-55.40